Wind_Speed
29 29 30 31 30 28 27 26 27 28 30 32 34 35 34 33 32 32 33 35 37 39 40 39 37 37 37 37 38 38 40 41 43 44 45 47 49 52 54 56 59 61 63
29 30 30 31 30 29 28 28 28 30 32 34 35 34 33 32 32 33 35 38 40 40 40 39 39 39 39 40 40 42 43 45 48 50 51 53 54 56 59 62 64 66 67
30 29 30 30 31 30 29 29 30 32 33 34 34 33 33 33 34 36 38 40 41 41 40 40 40 41 42 43 44 45 47 49 52 56 59 62 64 64 64 65 67 69 71
30 30 29 30 29 29 28 29 30 32 33 33 33 33 33 35 37 38 40 41 42 42 41 41 42 42 43 44 46 49 52 55 58 61 65 68 71 73 72 71 72 73 75
30 30 29 29 28 27 28 29 30 31 32 32 33 34 35 37 39 40 41 42 42 41 41 42 42 43 44 47 50 54 57 61 64 67 69 71 73 75 77 77 77 78 79
30 30 29 28 28 27 28 29 30 31 32 34 35 37 38 39 40 41 41 41 41 41 41 42 43 45 48 52 55 59 62 65 68 71 73 75 77 78 80 81 81 82 84
29 30 29 28 28 28 29 30 31 33 34 36 38 39 40 40 40 41 41 40 40 41 42 44 47 50 53 57 60 64 67 69 72 74 75 77 79 81 83 86 87 88 89
28 29 28 28 29 29 30 32 33 34 36 37 39 40 40 40 40 40 40 40 41 43 45 48 51 55 58 62 65 68 71 73 74 75 77 78 80 83 87 91 94 96 96
27 27 27 28 29 30 31 33 34 35 36 38 39 40 40 39 39 39 40 41 44 46 49 52 56 59 62 66 69 71 73 74 75 77 78 80 83 87 91 95 99 104 106
25 26 26 28 29 30 31 33 34 35 36 38 38 39 38 38 39 40 41 44 47 50 53 57 60 64 67 70 72 73 74 75 76 78 81 84 88 91 95 99 103 108 112
26 27 28 28 29 31 32 33 34 36 37 37 37 38 38 39 40 42 44 47 50 54 57 61 65 68 70 72 74 74 75 76 78 81 84 88 92 96 100 104 107 109 110
27 28 28 29 31 32 33 34 35 35 36 37 37 38 39 41 42 45 47 51 54 58 62 66 69 71 73 73 73 74 75 77 80 84 89 93 97 101 105 107 107 106 104
26 27 29 30 32 32 33 34 34 35 36 37 38 39 41 43 45 47 51 55 59 63 67 70 72 73 72 72 73 74 77 80 85 90 94 99 103 105 106 105 102 99 96
26 28 30 31 32 32 33 34 34 36 38 39 40 41 43 45 47 51 55 60 64 68 71 72 72 71 71 72 74 77 81 86 90 95 100 103 104 104 101 97 94 91 88
27 29 31 32 32 33 34 35 36 38 39 40 42 43 45 47 51 55 60 64 68 71 71 71 70 70 72 75 79 83 87 92 96 100 102 102 100 96 92 88 86 84 83
29 30 31 32 33 34 35 36 38 39 41 42 43 45 47 51 55 60 64 68 71 70 69 68 69 71 75 80 85 90 94 98 101 102 100 97 91 86 82 80 79 80 81
29 30 31 32 33 34 36 38 39 40 41 43 45 47 51 55 60 64 68 70 69 67 66 68 71 76 81 87 92 96 100 101 101 99 93 87 81 78 77 76 76 76 73
29 30 31 32 34 35 37 38 40 41 43 44 47 51 55 60 64 67 68 67 65 65 67 72 77 82 88 93 98 101 101 100 96 90 83 79 75 74 76 76 74 70 64
30 31 32 33 34 36 38 39 41 42 44 46 50 54 59 63 66 67 65 64 64 67 72 77 83 88 93 98 101 102 99 93 86 79 76 75 74 75 76 75 69 61 55
30 30 31 33 35 37 38 39 41 43 46 49 54 58 62 64 65 63 62 63 67 72 77 82 88 93 97 101 101 99 93 85 79 74 72 73 75 74 71 66 59 52 47
29 31 33 34 36 37 38 39 41 45 49 53 57 61 63 62 61 61 63 67 72 77 81 87 92 97 100 100 96 89 84 80 77 75 73 72 71 67 60 55 50 45 40
30 32 33 35 35 36 38 41 44 48 52 56 59 60 59 58 59 62 67 72 77 81 86 91 96 99 99 94 87 81 78 78 78 76 73 69 62 55 49 44 40 36 32
30 32 32 33 35 37 40 43 47 51 55 57 57 56 56 58 61 66 71 76 82 87 91 96 99 98 92 85 80 77 76 76 76 72 66 58 50 44 39 35 32 28 26
30 31 32 34 37 40 43 46 50 53 54 53 53 54 56 60 65 71 76 81 86 91 95 98 98 92 84 79 77 76 75 72 67 60 52 45 39 35 31 28 26 25 25
30 32 34 37 39 42 46 49 51 51 50 51 52 55 59 63 69 74 80 85 90 95 98 97 93 86 80 77 77 76 71 65 57 49 41 36 31 27 25 23 23 23 23
33 34 36 39 42 45 47 48 47 47 48 50 54 58 63 68 73 78 83 88 93 96 96 91 85 80 78 77 74 68 61 54 47 40 34 29 25 22 19 19 20 20 19
Wind_Direction
239 243 244 244 246 249 252 257 264 271 277 282 287 289 289 288 287 289 292 295 297 299 300 300 299 298 298 298 297 296 296 296 296 295 295 295 294 294 293 293 293 293 293
239 243 245 246 248 251 255 261 267 273 278 283 286 287 286 287 288 290 293 295 297 299 300 301 302 302 302 301 301 301 301 300 299 298 296 294 293 292 292 292 292 292 292
239 243 246 247 249 252 256 263 269 275 280 283 284 284 285 286 289 291 293 295 297 299 301 302 303 303 304 304 304 303 301 300 299 299 298 296 294 292 292 291 291 291 292
240 243 246 248 250 253 258 265 272 278 282 282 282 283 285 287 290 292 294 297 299 301 302 303 303 304 304 304 303 302 300 300 299 299 299 298 298 296 295 294 294 294 294
241 245 247 249 250 254 260 268 275 279 280 280 281 283 285 288 291 293 296 298 300 301 301 302 302 302 302 302 301 301 300 300 300 300 299 299 299 298 297 296 296 296 297
242 245 247 248 251 255 262 270 275 278 278 279 280 283 286 289 292 295 297 298 299 299 299 300 300 300 300 301 301 302 302 302 302 301 301 301 300 300 299 298 297 297 298
243 246 248 250 253 258 264 270 273 275 277 279 282 285 288 291 293 295 297 297 298 298 298 299 300 300 301 302 303 304 304 303 303 302 302 302 302 301 301 300 300 299 300
244 247 250 253 256 260 265 269 272 275 278 281 284 287 289 292 294 296 296 296 296 297 298 299 300 302 303 305 306 306 305 304 304 304 304 304 303 303 303 303 303 302 301
246 250 253 256 258 262 266 270 274 277 281 284 286 288 290 292 294 295 295 295 296 297 299 301 303 305 306 307 307 307 306 305 305 305 305 305 305 305 305 305 305 305 304
250 254 256 259 261 264 268 272 276 280 283 285 286 288 290 292 294 294 295 296 298 300 303 305 307 308 308 308 308 307 307 306 307 307 306 306 306 306 306 306 306 306 306
252 256 259 261 264 267 271 275 278 281 283 285 286 288 291 292 294 295 297 298 301 304 306 308 309 309 309 309 308 308 308 308 308 308 307 307 307 307 307 307 307 307 306
253 257 261 264 267 270 274 277 280 282 284 285 287 289 292 294 295 297 300 302 305 308 309 310 310 310 310 309 309 309 309 309 309 309 309 309 309 309 308 308 307 307 307
256 260 263 267 270 274 277 279 281 283 285 287 289 292 294 296 298 301 304 306 309 310 311 311 311 311 311 310 310 311 311 311 310 310 310 310 310 309 309 308 308 307 307
260 264 267 271 274 276 279 282 284 286 287 289 292 294 296 298 301 304 307 309 311 312 312 312 312 312 312 312 312 312 312 311 311 311 311 311 310 310 309 308 308 308 308
266 269 272 275 278 280 282 284 286 287 289 292 294 296 299 302 304 307 309 311 312 313 312 312 312 313 313 313 313 313 313 313 313 312 312 311 310 309 309 309 310 310 311
270 273 277 279 280 281 283 285 286 288 291 294 296 299 301 304 306 309 311 312 312 312 312 313 314 315 315 314 314 314 314 314 313 313 312 311 310 309 310 310 311 312 312
274 276 277 278 279 281 283 286 288 290 293 296 298 301 303 306 308 310 311 312 312 312 313 315 316 316 316 316 316 316 315 315 313 312 312 311 311 311 311 311 311 312 312
273 274 275 277 279 282 285 287 289 292 295 298 300 302 305 307 309 310 311 311 312 314 315 316 317 317 317 317 317 316 315 315 314 313 313 312 313 312 312 312 313 313 313
271 274 276 279 282 284 287 289 292 295 297 299 301 304 306 308 309 310 310 312 313 315 316 317 318 319 318 318 317 316 316 315 314 313 313 314 314 314 313 313 313 314 313
272 276 279 282 285 287 289 292 294 296 298 301 303 306 307 308 309 310 311 313 314 316 317 318 319 319 319 319 318 317 316 315 314 315 315 315 314 314 313 313 314 315 316
275 279 282 285 287 289 291 293 296 297 300 303 305 307 308 309 310 311 312 314 315 317 318 319 320 320 320 319 318 317 316 316 317 317 317 316 315 314 314 314 316 318 320
279 282 285 287 289 290 293 295 297 299 302 304 306 307 308 309 310 312 314 315 317 318 319 319 320 321 321 320 319 318 318 318 319 319 318 317 316 316 316 317 319 322 324
282 284 286 288 290 292 294 296 299 302 304 306 307 308 309 310 312 314 315 317 318 319 320 320 321 322 321 320 319 319 319 319 319 319 319 318 318 319 319 321 324 328 330
284 286 288 289 291 293 296 299 302 304 306 307 307 308 310 312 314 316 317 318 319 320 321 321 322 322 321 320 320 320 320 320 320 320 320 321 322 323 326 329 332 334 336
287 289 290 292 294 297 300 303 304 305 306 307 308 310 311 314 316 318 318 319 320 321 322 323 323 323 323 322 323 323 324 324 324 324 325 327 328 330 332 334 337 338 340
290 291 293 295 298 301 302 304 305 306 307 309 310 312 314 316 318 319 320 321 322 323 324 323 323 324 325 325 325 326 327 326 327 328 331 334 335 339 342 342 342 345 350
Height
5769 5771 5773 5775 5778 5780 5782 5783 5784 5784 5784 5783 5782 5780 5779 5777 5776 5774 5772 5770 5767 5764 5761 5758 5754 5750 5747 5744 5741 5737 5734 5730 5727 5724 5722 5719 5714 5710 5706 5701 5697 5692 5687
5764 5766 5768 5770 5773 5775 5777 5778 5779 5779 5778 5777 5776 5774 5773 5771 5769 5767 5765 5763 5760 5757 5753 5749 5746 5742 5738 5735 5731 5727 5724 5719 5715 5711 5708 5706 5704 5699 5693 5687 5682 5676 5671
5758 5760 5763 5765 5768 5770 5772 5773 5773 5773 5772 5771 5769 5768 5767 5765 5763 5761 5758 5755 5752 5748 5745 5741 5737 5733 5729 5725 5721 5717 5713 5709 5704 5697 5692 5687 5683 5682 5680 5673 5666 5660 5653
5752 5755 5758 5760 5763 5765 5766 5767 5767 5766 5765 5764 5763 5762 5760 5758 5756 5753 5751 5747 5744 5740 5736 5732 5728 5724 5720 5716 5711 5706 5701 5696 5691 5685 5678 5670 5662 5656 5654 5653 5646 5639 5632
5747 5750 5752 5755 5757 5760 5761 5761 5761 5760 5759 5758 5756 5755 5753 5751 5748 5745 5743 5739 5736 5732 5727 5723 5720 5715 5711 5706 5701 5695 5689 5682 5676 5669 5662 5655 5648 5639 5632 5629 5624 5617 5609
5741 5744 5747 5750 5752 5754 5755 5755 5754 5753 5752 5751 5749 5747 5745 5743 5741 5738 5734 5731 5728 5724 5719 5715 5711 5706 5701 5695 5689 5682 5675 5668 5660 5652 5644 5636 5628 5619 5610 5605 5601 5595 5588
5736 5739 5741 5744 5746 5748 5748 5748 5747 5746 5745 5744 5742 5740 5738 5735 5733 5730 5726 5722 5719 5715 5711 5706 5701 5695 5689 5683 5676 5668 5661 5653 5644 5636 5627 5617 5607 5597 5587 5579 5573 5570 5565
5731 5733 5736 5738 5740 5741 5741 5741 5741 5739 5738 5737 5735 5732 5730 5727 5724 5721 5717 5714 5710 5705 5701 5696 5690 5683 5677 5669 5662 5653 5645 5636 5627 5618 5608 5598 5588 5577 5566 5554 5543 5538 5537
5725 5728 5731 5732 5734 5734 5735 5734 5734 5733 5731 5729 5727 5724 5722 5719 5716 5713 5709 5705 5701 5696 5690 5684 5678 5670 5663 5655 5646 5638 5628 5619 5609 5599 5589 5579 5569 5557 5545 5531 5516 5502 5495
5721 5723 5725 5726 5727 5727 5727 5727 5727 5726 5724 5721 5719 5716 5714 5711 5707 5704 5700 5695 5690 5685 5678 5671 5664 5656 5647 5639 5630 5621 5611 5601 5591 5580 5570 5560 5548 5536 5522 5508 5492 5474 5455
5716 5718 5719 5720 5720 5720 5720 5720 5719 5718 5716 5713 5711 5708 5705 5702 5698 5694 5690 5685 5679 5673 5665 5658 5649 5640 5631 5622 5613 5604 5594 5583 5573 5562 5551 5539 5526 5513 5498 5482 5465 5448 5427
5710 5712 5713 5713 5713 5713 5713 5713 5712 5710 5707 5705 5703 5700 5697 5693 5689 5684 5679 5673 5667 5659 5651 5642 5633 5624 5615 5605 5596 5586 5576 5565 5554 5542 5530 5517 5502 5487 5470 5454 5437 5420 5403
5705 5706 5706 5706 5706 5706 5706 5705 5703 5702 5699 5697 5694 5691 5687 5683 5679 5673 5667 5661 5653 5645 5636 5626 5617 5607 5597 5588 5578 5568 5558 5546 5534 5520 5506 5491 5475 5459 5442 5425 5409 5394 5380
5698 5699 5699 5699 5699 5699 5698 5697 5696 5694 5691 5688 5685 5681 5677 5673 5668 5662 5655 5647 5638 5630 5620 5610 5600 5590 5580 5570 5561 5551 5540 5527 5513 5497 5481 5464 5447 5430 5414 5400 5385 5371 5358
5692 5692 5692 5692 5692 5691 5690 5689 5688 5685 5682 5679 5676 5672 5667 5662 5656 5649 5641 5633 5624 5614 5604 5594 5584 5574 5563 5553 5542 5532 5520 5506 5491 5474 5456 5438 5421 5404 5389 5375 5362 5349 5336
5685 5685 5685 5685 5685 5684 5683 5681 5679 5677 5674 5670 5666 5662 5656 5650 5644 5636 5627 5618 5609 5599 5589 5579 5569 5558 5547 5535 5523 5510 5497 5481 5464 5448 5432 5415 5398 5383 5371 5358 5344 5330 5316
5678 5678 5678 5678 5677 5676 5675 5673 5671 5668 5665 5661 5656 5651 5645 5638 5631 5622 5613 5604 5595 5585 5575 5565 5554 5543 5530 5516 5502 5487 5473 5457 5439 5422 5407 5393 5378 5364 5351 5341 5330 5317 5302
5671 5671 5671 5671 5670 5669 5667 5665 5662 5659 5655 5651 5645 5639 5633 5625 5617 5608 5599 5590 5581 5571 5561 5550 5539 5526 5511 5495 5480 5464 5449 5433 5415 5398 5383 5371 5360 5346 5332 5321 5311 5300 5288
5665 5664 5664 5664 5663 5661 5659 5656 5653 5649 5645 5640 5634 5628 5620 5612 5604 5595 5586 5576 5567 5557 5546 5534 5522 5508 5492 5474 5457 5439 5424 5410 5395 5381 5366 5352 5340 5328 5314 5301 5292 5284 5275
5658 5658 5657 5656 5655 5652 5650 5647 5643 5639 5634 5629 5622 5615 5607 5599 5590 5581 5572 5563 5554 5543 5531 5518 5503 5488 5472 5454 5435 5415 5400 5388 5378 5366 5352 5338 5323 5310 5297 5285 5276 5269 5263
5651 5650 5649 5648 5646 5643 5640 5637 5633 5628 5623 5617 5610 5602 5594 5586 5577 5568 5559 5550 5540 5528 5516 5502 5487 5469 5451 5433 5414 5395 5378 5364 5354 5345 5334 5321 5306 5293 5282 5272 5264 5258 5252
5643 5642 5641 5639 5636 5634 5631 5627 5623 5617 5612 5605 5598 5590 5582 5573 5565 5556 5546 5535 5523 5511 5497 5482 5467 5449 5429 5411 5394 5378 5363 5347 5334 5324 5313 5302 5290 5279 5270 5263 5256 5250 5245
5635 5634 5632 5630 5627 5624 5621 5617 5611 5606 5600 5593 5585 5578 5570 5561 5552 5542 5532 5519 5506 5492 5477 5461 5446 5429 5410 5392 5376 5363 5349 5335 5320 5307 5296 5285 5276 5269 5262 5256 5250 5245 5240
5627 5625 5623 5621 5618 5614 5610 5605 5600 5594 5588 5581 5574 5567 5559 5550 5540 5528 5515 5502 5488 5473 5457 5440 5423 5407 5391 5375 5361 5347 5334 5320 5307 5294 5284 5275 5268 5261 5255 5250 5246 5241 5236
5619 5617 5614 5611 5608 5604 5599 5595 5589 5583 5577 5570 5563 5555 5547 5537 5527 5514 5500 5485 5469 5451 5434 5418 5400 5385 5373 5358 5342 5327 5315 5303 5292 5282 5275 5268 5262 5257 5252 5248 5243 5239 5234
5610 5607 5605 5601 5598 5593 5589 5583 5578 5572 5566 5559 5551 5543 5534 5523 5512 5500 5487 5469 5451 5434 5415 5397 5381 5367 5354 5340 5327 5315 5303 5291 5282 5275 5268 5263 5258 5254 5250 5246 5242 5237 5233